Location: Bremen
(53.0793°N, 8.8017°E)
Time: 21:26:23
(UTC+01:00)

S-56A Canister/Altair - Pass Details

Date: 09 December 2021
Orbit: 634 x 2499 km, 38.9° (Epoch: 26 January)

Event Time Altitude Azimuth Distance (km) Brightness Sun altitude
Rises 22:53:39 0° 230° (SW) 5,776 12.0 -55.9°
Enters shadow 22:54:32 - 229° (SW) 5,537 11.9 -56.0°
Reaches altitude 10° 22:58:22 10° 221° (SW) 4,516 - -56.3°
Maximum altitude 23:07:51 29° 169° (SSE) 2,638 - -57.1°
Drops below altitude 10° 23:14:49 10° 113° (ESE) 3,270 - -57.6°
Sets 23:17:38 0° 102° (ESE) 3,990 - -57.8°
